Location: Hylvaty SDH
(49.9612°N, 16.4057°E)
Time: 20:24:22
(UTC+02:00)

Transit 4A - Pass Details

Date: 17 August 2020
Orbit: 862 x 982 km, 66.8° (Epoch: 28 September)

Event Time Altitude Azimuth Distance (km) Brightness Sun altitude
Rises 10:18:35 0° 246° (WSW) 3,521 10.7 40.9°
Reaches altitude 10° 10:21:15 10° 255° (WSW) 2,602 10.0 41.3°
Maximum altitude 10:26:50 37° 322° (NW) 1,410 8.8 42.0°
Drops below altitude 10° 10:32:37 10° 29° (NNE) 2,689 10.4 42.8°
Sets 10:35:26 0° 38° (NE) 3,654 11.0 43.1°
